Overview Statistics Trail Chart Weather Telemetry Raw packets
 

This is the latest recevied weather packets stored in our database for station/object 4S6DRJ-13. If no packets are shown the sender has not sent any weather packets the latest 10 day(s).

<< 145 146 147 148 149 150 151 >>
Time Temp. Humidity Pressure Rain* Wind** Luminosity Snow
1788243504 31.11° C 72% 1009.5 hPa 0 mm 1.79 m/s, 224° 492 W/m² -
1788243443 30.56° C 72% 1009.4 hPa 0 mm 1.34 m/s, 104° 1142 W/m² -
1788243382 30.56° C 72% 1009.4 hPa 0 mm 1.34 m/s, 245° 393 W/m² -
1788243321 30.56° C 72% 1009.5 hPa 0 mm 2.68 m/s, 236° 378 W/m² -
1788243261 30.56° C 72% 1009.4 hPa 0 mm 1.34 m/s, 239° 752 W/m² -
1788243199 30.56° C 72% 1009.6 hPa 0 mm 3.13 m/s, 212° 1131 W/m² -
1788243138 30.56° C 72% 1009.5 hPa 0 mm 3.13 m/s, 248° 1112 W/m² -
1788243078 30.56° C 73% 1009.5 hPa 0 mm 2.24 m/s, 157° 1108 W/m² -
1788243016 30.56° C 73% 1009.6 hPa 0 mm 1.79 m/s, 344° 1102 W/m² -
1788242955 30.56° C 72% 1009.4 hPa 0 mm 3.13 m/s, 236° 511 W/m² -
1788242895 31.11° C 72% 1009.6 hPa 0 mm 3.13 m/s, 179° 473 W/m² -
1788242833 31.11° C 71% 1009.5 hPa 0 mm 3.58 m/s, 246° 518 W/m² -
1788242773 31.11° C 73% 1009.4 hPa 0 mm 1.79 m/s, 272° 362 W/m² -
1788242711 31.11° C 72% 1009.5 hPa 0 mm 1.34 m/s, 74° 379 W/m² -
1788242650 31.11° C 72% 1009.5 hPa 0 mm 4.02 m/s, 252° 1111 W/m² -
1788242589 31.11° C 73% 1009.4 hPa 0 mm 1.34 m/s, 268° 1115 W/m² -
1788242529 30.56° C 72% 1009.6 hPa 0 mm 1.34 m/s, 107° 1109 W/m² -
1788242467 30.56° C 72% 1009.3 hPa 0 mm 2.24 m/s, 174° 392 W/m² -
1788242406 30.56° C 72% 1009.5 hPa 0 mm 1.79 m/s, 273° 891 W/m² -
1788242346 30.56° C 72% 1009.4 hPa 0 mm 3.13 m/s, 343° 575 W/m² -
1788242284 30.56° C 72% 1009.4 hPa 0 mm 2.68 m/s, 338° 1111 W/m² -
1788242224 30.56° C 74% 1009.5 hPa 0 mm 1.34 m/s, 10° 1124 W/m² -
1788242162 30.56° C 73% 1009.2 hPa 0 mm 2.68 m/s, 159° 1104 W/m² -
1788242102 30.56° C 74% 1009.5 hPa 0 mm 1.79 m/s, 213° 400 W/m² -
1788242041 30.56° C 73% 1009.5 hPa 0 mm 1.79 m/s, 104° 433 W/m² -

* Rain latest hour (hover to see other rain measurements)
** Current wind speed in m/s (hover to see current wind gust speed)